Weather History for KHHW - March, 2013

Change the Weather History Date:

Monday, March 11, 2013

  Actual Average Record
Temperature  
Mean Temperature 42 °F -  
Max Temperature 53 °F 67 °F 83 °F (2014)
Min Temperature 30 °F 44 °F 30 °F (2013)
Degree Days  
Heating Degree Days 24    
Moisture  
Dew Point 24 °F    
Average Humidity 56    
Maximum Humidity 85    
Minimum Humidity 25    
Precipitation  
Precipitation 0.00 in - - ()
Sea Level Pressure  
Sea Level Pressure 30.03 in    
Wind  
Wind Speed 9 mph (WNW)    
Max Wind Speed 17 mph    
Max Gust Speed 25 mph    
Visibility 10 miles    
Events      
Averages and records for this station are not official NWS values.
T = Trace of Precipitation, MM = Missing Value Source: NWS Daily Summary

Daily Weather History Graph

Daily Weather History Graph

Search for Another Location

Airport or City:

Trip Planner

Search our weather history database for the weather conditions in past years. The results will help you decide how hot, cold, wet, or windy it might be!

Date:

Astronomy

Mar. 11, 2013 Rise Set
Actual Time 7:37 AM CDT 7:26 PM CDT
Civil Twilight 7:12 AM CDT 7:51 PM CDT
Nautical Twilight 6:43 AM CDT 8:20 PM CDT
Astronomical Twilight 6:14 AM CDT 8:50 PM CDT
Moon 7:13 AM CDT (3/11) 7:37 PM CDT (3/11)
Length of Visible Light 12h 39m
Length of Day
11h 49m
Waning Crescent, 0% of the Moon is Illuminated
Mar 11
Waning Crescent
Mar 11
New
Mar 19
First Quarter
Mar 27
Full
Apr 2
Last Quarter

Hourly Weather History & Observations

Time (CDT) Temp. Windchill Dew Point Humidity Pressure Visibility Wind Dir Wind Speed Gust Speed Precip Events Conditions
12:15 AM 37.6 °F 28.1 °F 25.5 °F 62% 30.04 in 10.0 mi NNW 17.3 mph 25.3 mph N/A   Scattered Clouds
12:35 AM 36.7 °F 28.4 °F 25.7 °F 64% 30.03 in 10.0 mi NNW 12.7 mph 19.6 mph N/A   Clear
12:55 AM 36.1 °F 28.2 °F 25.5 °F 65% 30.02 in 10.0 mi NW 11.5 mph 17.3 mph N/A   Clear
1:15 AM 35.6 °F 28.0 °F 25.7 °F 67% 30.03 in 10.0 mi NW 10.4 mph - N/A   Clear
1:35 AM 35.1 °F 29.3 °F 25.7 °F 69% 30.03 in 10.0 mi NW 6.9 mph - N/A   Clear
2:15 AM 34.3 °F 28.4 °F 25.9 °F 71% 30.05 in 10.0 mi NW 6.9 mph - N/A   Clear
2:35 AM 34.0 °F 28.0 °F 26.1 °F 73% 30.04 in 10.0 mi NNW 6.9 mph - N/A   Clear
2:55 AM 33.8 °F 28.6 °F 26.1 °F 73% 30.04 in 10.0 mi NNW 5.8 mph - N/A   Clear
3:15 AM 33.1 °F 27.7 °F 25.7 °F 74% 30.03 in 10.0 mi NW 5.8 mph - N/A   Clear
3:35 AM 33.1 °F 28.7 °F 25.7 °F 74% 30.03 in 10.0 mi NW 4.6 mph - N/A   Clear
3:55 AM 32.0 °F 28.7 °F 26.2 °F 79% 30.03 in 10.0 mi WNW 3.5 mph - N/A   Clear
4:15 AM 32.0 °F 27.5 °F 26.1 °F 79% 30.03 in 10.0 mi WNW 4.6 mph - N/A   Clear
4:35 AM 32.0 °F 26.4 °F 26.1 °F 79% 30.02 in 10.0 mi WNW 5.8 mph - N/A   Clear
4:55 AM 31.8 °F 26.2 °F 26.2 °F 80% 30.02 in 10.0 mi WNW 5.8 mph - N/A   Clear
5:15 AM 31.5 °F 26.8 °F 26.2 °F 81% 30.03 in 10.0 mi West 4.6 mph - N/A   Clear
5:35 AM 30.7 °F 26.0 °F 25.7 °F 82% 30.03 in 10.0 mi WSW 4.6 mph - N/A   Clear
5:55 AM 30.9 °F 26.2 °F 25.9 °F 82% 30.03 in 10.0 mi West 4.6 mph - N/A   Clear
6:15 AM 30.7 °F 24.9 °F 26.2 °F 83% 30.03 in 10.0 mi West 5.8 mph - N/A   Clear
6:35 AM 30.2 °F 24.3 °F 26.1 °F 85% 30.04 in 10.0 mi West 5.8 mph - N/A   Clear
6:55 AM 30.4 °F 24.5 °F 26.1 °F 84% 30.04 in 10.0 mi West 5.8 mph - N/A   Clear
7:15 AM 30.2 °F 25.4 °F 26.1 °F 85% 30.04 in 10.0 mi West 4.6 mph - N/A   Clear
7:35 AM 30.2 °F 26.7 °F 26.1 °F 85% 30.05 in 10.0 mi West 3.5 mph - N/A   Clear
7:55 AM 30.2 °F 26.7 °F 26.2 °F 85% 30.05 in 10.0 mi West 3.5 mph - N/A   Clear
8:15 AM 31.3 °F 26.6 °F 27.0 °F 84% 30.06 in 10.0 mi West 4.6 mph - N/A   Clear
8:35 AM 32.0 °F 26.4 °F 27.5 °F 83% 30.06 in 10.0 mi West 5.8 mph - N/A   Clear
8:55 AM 33.3 °F 27.9 °F 28.2 °F 82% 30.05 in 10.0 mi West 5.8 mph - N/A   Clear
9:15 AM 35.1 °F 28.6 °F 29.5 °F 80% 30.06 in 10.0 mi WNW 8.1 mph - N/A   Clear
9:35 AM 36.5 °F 29.7 °F 29.8 °F 77% 30.06 in 10.0 mi WNW 9.2 mph - N/A   Clear
9:55 AM 37.8 °F 32.5 °F 30.0 °F 74% 30.06 in 10.0 mi WNW 6.9 mph - N/A   Clear
10:15 AM 38.7 °F 34.3 °F 30.2 °F 72% 30.06 in 10.0 mi WNW 5.8 mph - N/A   Clear
10:35 AM 39.6 °F 33.5 °F 30.2 °F 69% 30.06 in 10.0 mi WNW 9.2 mph 16.1 mph N/A   Scattered Clouds
10:55 AM 40.1 °F 33.2 °F 30.4 °F 68% 30.07 in 10.0 mi West 11.5 mph 16.1 mph N/A   Scattered Clouds
11:15 AM 41.4 °F 34.3 °F 29.3 °F 62% 30.07 in 10.0 mi NW 12.7 mph 17.3 mph N/A   Scattered Clouds
11:35 AM 42.8 °F 36.6 °F 28.2 °F 56% 30.07 in 10.0 mi NW 11.5 mph - N/A   Scattered Clouds
11:55 AM 43.5 °F 38.3 °F 27.0 °F 52% 30.07 in 10.0 mi WNW 9.2 mph - N/A   Scattered Clouds
12:15 PM 44.4 °F 38.6 °F 26.1 °F 49% 30.06 in 10.0 mi West 11.5 mph 19.6 mph N/A   Clear
12:35 PM 44.6 °F 38.8 °F 25.5 °F 47% 30.07 in 10.0 mi WNW 11.5 mph 19.6 mph N/A   Clear
12:55 PM 45.9 °F 40.4 °F 26.4 °F 47% 30.06 in 10.0 mi WNW 11.5 mph 16.1 mph N/A   Clear
1:15 PM 45.7 °F 40.2 °F 25.2 °F 45% 30.06 in 10.0 mi WNW 11.5 mph 18.4 mph N/A   Clear
1:35 PM 46.6 °F - 24.4 °F 42% 30.06 in 10.0 mi WNW 8.1 mph 19.6 mph N/A   Clear
1:55 PM 47.1 °F - 25.0 °F 42% 30.05 in 10.0 mi NW 10.4 mph 17.3 mph N/A   Clear
2:15 PM 48.4 °F - 23.4 °F 37% 30.04 in 10.0 mi West 10.4 mph 19.6 mph N/A   Clear
2:35 PM 49.3 °F - 23.2 °F 36% 30.03 in 10.0 mi WNW 8.1 mph 17.3 mph N/A   Clear
2:55 PM 49.3 °F - 22.3 °F 35% 30.02 in 10.0 mi West 8.1 mph - N/A   Clear
3:15 PM 50.4 °F - 22.6 °F 34% 30.01 in 10.0 mi West 11.5 mph 18.4 mph N/A   Clear
3:35 PM 50.5 °F - 21.6 °F 32% 30.01 in 10.0 mi WNW 10.4 mph 19.6 mph N/A   Clear
3:55 PM 51.8 °F - 21.9 °F 31% 30.01 in 10.0 mi WNW 11.5 mph 19.6 mph N/A   Clear
4:15 PM 51.8 °F - 21.6 °F 31% 30.01 in 10.0 mi WNW 11.5 mph 18.4 mph N/A   Clear
4:35 PM 52.7 °F - 20.8 °F 29% 30.00 in 10.0 mi WNW 8.1 mph 18.4 mph N/A   Clear
4:55 PM 52.9 °F - 20.1 °F 28% 30.00 in 10.0 mi WNW 11.5 mph - N/A   Clear
5:15 PM 52.7 °F - 17.8 °F 25% 30.00 in 10.0 mi NW 12.7 mph 21.9 mph N/A   Clear
5:35 PM 52.9 °F - 17.6 °F 25% 30.00 in 10.0 mi WNW 11.5 mph 18.4 mph N/A   Clear
6:15 PM 53.1 °F - 19.6 °F 27% 30.00 in 10.0 mi NW 12.7 mph 16.1 mph N/A   Clear
6:35 PM 52.7 °F - 18.1 °F 26% 30.00 in 10.0 mi WNW 9.2 mph - N/A   Clear
6:55 PM 51.8 °F - 18.5 °F 27% 30.00 in 10.0 mi NW 5.8 mph - N/A   Clear
7:15 PM 50.4 °F - 19.9 °F 30% 29.99 in 10.0 mi NW 3.5 mph - N/A   Clear
7:35 PM 49.3 °F - 20.1 °F 32% 30.00 in 10.0 mi West 6.9 mph - N/A   Clear
7:55 PM 48.6 °F - 20.5 °F 33% 30.00 in 10.0 mi West 6.9 mph - N/A   Clear
8:15 PM 48.2 °F - 20.8 °F 34% 30.00 in 10.0 mi West 9.2 mph - N/A   Clear
8:35 PM 48.0 °F - 19.4 °F 32% 30.01 in 10.0 mi WNW 6.9 mph - N/A   Clear
8:55 PM 46.4 °F 43.5 °F 20.7 °F 36% 30.02 in 10.0 mi West 5.8 mph - N/A   Clear
9:15 PM 44.8 °F 43.3 °F 21.6 °F 40% 30.02 in 10.0 mi West 3.5 mph - N/A   Clear
9:35 PM 46.4 °F 42.4 °F 18.5 °F 33% 30.02 in 10.0 mi West 8.1 mph - N/A   Clear
9:55 PM 44.8 °F 41.6 °F 19.8 °F 37% 30.03 in 10.0 mi West 5.8 mph - N/A   Clear
10:15 PM 43.0 °F - 20.3 °F 40% 30.04 in 10.0 mi North - - N/A   Clear
10:35 PM 39.4 °F 36.1 °F 27.1 °F 62% 30.04 in 10.0 mi SSW 4.6 mph - N/A   Clear
10:55 PM 40.8 °F 37.8 °F 24.6 °F 53% 30.05 in 10.0 mi SSW 4.6 mph - N/A   Clear
11:15 PM 41.0 °F 38.0 °F 23.0 °F 49% 30.06 in 10.0 mi SW 4.6 mph - N/A   Clear
11:35 PM 43.5 °F 40.9 °F 19.2 °F 38% 30.05 in 10.0 mi SSW 4.6 mph - N/A   Clear
11:55 PM 40.1 °F 36.9 °F 23.2 °F 51% 30.05 in 10.0 mi SSW 4.6 mph - N/A   Clear